Location: Nelson
(41.2830°S, 173.2830°E)
Time: 14:23:16
(UTC+13:00)

ISS - Pass Details

Date: 29 January 2019
Orbit: 403 x 411 km, 51.6° (Epoch: 19 February)

Event Time Altitude Azimuth Distance (km) Brightness Sun altitude
Exits shadow 04:42:35 11° 29° (NNE) 1,417 -1.2 -17.0°
Maximum altitude 04:43:45 13° 50° (NE) 1,328 -1.2 -16.9°
Drops below altitude 10° 04:45:21 10° 79° (E) 1,495 -0.5 -16.7°
Sets 04:48:19 0° 108° (ESE) 2,359 1.3 -16.3°
